Theta_e
330 330 331 332 332 332 332 329 329 332 332 331 331 330 329 328 328 328 325 323 324 324 323 323 322 320 323 329 330 330 330 329 329 329 330 329 328 329 330 329 329 330 330 330 330 330 331 332 332 332 332 332 331 331 332 332 331 330 328 327 327 327 327 328 329 328 328 328 329 329 329 328 327 325 323 321 321 320 321 322 323 324 326 327 328
330 331 330 330 331 331 330 328 328 332 332 331 331 330 330 329 329 327 322 323 325 324 322 320 320 321 325 329 329 328 327 326 325 324 325 325 325 326 326 327 328 329 328 328 330 331 333 333 332 330 331 332 331 331 332 332 331 330 328 327 327 327 327 328 330 329 329 329 328 328 330 328 325 324 323 321 319 319 320 321 323 324 325 327 328
333 333 330 329 330 330 329 327 328 331 332 331 331 331 331 330 331 327 321 321 325 323 321 319 320 323 325 327 327 325 323 323 323 322 321 321 321 321 321 321 323 325 327 327 328 329 330 331 330 329 330 330 331 331 331 330 329 329 328 327 327 328 328 329 330 329 330 330 328 328 331 330 329 326 324 323 321 320 322 322 323 323 324 326 327
334 334 331 329 328 329 329 327 327 330 333 333 332 331 332 332 332 328 320 319 323 322 320 321 320 322 324 324 324 322 320 320 320 321 321 320 320 320 319 319 320 322 323 324 324 325 326 327 328 329 329 329 330 330 330 330 328 328 328 327 327 328 327 327 329 329 329 330 329 329 327 330 334 330 326 324 321 321 322 323 323 322 323 324 325
332 334 332 330 327 327 328 328 328 329 332 334 333 333 333 332 332 328 319 319 323 322 321 323 321 321 322 322 320 321 320 319 319 320 320 319 320 320 320 320 320 320 319 320 321 323 325 326 327 328 328 329 330 330 330 330 329 328 327 327 327 326 325 327 330 329 329 330 328 329 327 330 334 328 326 327 323 321 320 320 321 321 321 322 322
331 332 331 330 327 325 327 328 328 329 332 334 333 333 333 332 332 328 319 319 324 323 322 323 321 321 321 320 320 321 321 319 319 319 318 319 319 319 319 320 319 319 319 318 320 322 325 326 326 327 328 329 329 330 330 329 329 328 327 326 326 326 327 328 330 328 329 329 327 328 328 329 330 327 328 328 324 323 322 320 321 320 320 321 321
329 330 330 330 326 323 324 328 329 329 331 333 333 334 333 332 332 326 318 320 324 324 323 322 321 321 320 320 320 320 319 319 319 319 319 318 318 319 319 319 319 319 318 318 318 318 320 322 323 325 327 328 328 329 329 329 329 328 327 327 327 328 329 329 329 328 329 329 328 328 327 327 327 326 328 329 327 327 325 323 323 323 324 324 323
328 329 329 329 326 323 322 326 330 329 331 333 333 333 333 332 331 325 318 322 324 323 322 321 321 321 320 319 318 317 319 320 320 319 318 318 318 318 319 319 318 318 317 317 317 316 316 318 320 322 324 325 325 326 326 327 328 328 327 326 327 328 329 328 328 329 329 329 328 328 327 326 326 327 328 327 328 328 328 326 320 318 321 320 319
327 327 329 327 325 324 323 325 329 329 330 333 333 333 332 331 331 324 320 324 324 321 322 320 321 320 319 317 317 318 320 320 320 318 317 318 319 319 319 318 318 317 316 315 315 316 317 318 320 321 322 322 322 322 322 323 324 325 324 324 326 327 327 327 327 328 327 327 327 326 326 326 325 325 325 324 326 328 329 328 319 313 315 316 315
327 327 328 324 323 324 323 323 329 330 330 332 332 333 332 331 331 325 321 325 323 320 321 320 320 319 316 316 317 319 320 320 319 317 317 319 319 319 319 318 318 316 316 314 313 314 315 315 316 317 320 321 321 320 319 319 320 320 321 323 325 324 322 321 322 324 325 325 325 324 324 323 319 316 315 317 320 322 324 324 315 312 315 314 313
328 328 327 323 321 324 323 323 326 329 330 331 332 333 332 331 331 326 322 324 322 320 320 320 319 317 316 317 318 319 320 319 318 317 318 319 319 319 317 316 315 314 314 313 312 312 312 312 311 310 313 316 318 319 318 318 318 317 317 319 321 319 316 315 316 318 321 321 321 320 319 317 312 311 311 311 312 314 318 317 311 310 313 312 312
328 329 330 327 324 324 323 323 325 328 330 330 331 332 332 331 330 326 323 323 321 320 320 320 317 315 316 318 318 319 320 318 317 318 319 320 319 317 315 313 313 312 312 312 312 313 312 310 309 308 309 310 311 313 315 316 315 314 313 315 316 315 313 313 313 314 315 316 314 313 313 311 309 310 311 310 310 311 313 312 310 311 313 311 311
329 333 335 334 331 325 322 323 323 325 329 330 330 332 331 331 329 325 322 322 322 320 321 319 315 315 317 319 318 319 319 317 317 318 319 320 318 315 313 312 312 311 310 310 311 312 311 310 310 311 310 309 308 309 310 310 309 307 306 308 310 310 310 309 309 309 311 311 310 310 308 308 308 309 309 310 310 310 310 310 310 311 312 311 310
328 332 335 338 336 326 321 323 323 324 328 329 330 330 330 330 329 325 322 323 322 321 321 318 315 315 316 318 319 319 319 318 317 318 319 318 316 313 312 310 310 309 309 308 308 310 310 310 311 311 310 310 309 309 308 305 302 301 300 301 303 305 305 305 306 308 308 308 307 307 307 308 308 308 309 310 309 310 310 310 311 310 310 310 309
328 332 335 334 329 324 323 324 323 324 326 329 328 329 329 329 328 325 323 323 322 321 321 320 318 317 315 318 320 319 318 317 317 318 319 317 314 312 311 309 309 308 308 308 308 309 309 310 312 312 310 310 310 309 307 304 303 302 301 300 300 300 300 301 304 306 306 306 304 303 303 305 306 306 306 307 308 310 310 309 310 312 314 313 310
329 333 335 330 323 323 326 325 324 324 325 326 327 327 328 328 327 326 324 323 321 321 321 320 320 320 317 318 319 318 318 317 317 319 319 317 314 313 312 310 309 309 309 310 311 310 309 309 310 310 311 312 311 310 309 307 305 303 301 302 302 301 300 300 301 303 305 306 305 303 302 301 302 303 302 302 305 308 310 309 309 310 314 315 315
327 329 330 328 324 324 327 327 327 326 324 325 326 327 328 328 327 325 323 322 321 321 320 318 319 322 320 319 319 318 318 316 317 319 319 317 316 315 313 311 311 311 310 311 312 312 310 307 307 309 311 312 312 311 311 309 306 304 305 307 307 306 304 302 301 302 304 306 307 307 306 304 304 305 304 303 303 306 308 308 307 308 310 313 316
325 326 325 324 322 322 325 327 328 327 325 325 326 326 327 326 325 324 322 321 320 319 318 315 317 320 321 319 319 318 317 316 316 318 319 318 316 315 314 313 313 312 312 312 313 313 312 308 305 306 309 311 311 310 310 310 307 306 308 310 310 310 308 305 304 303 302 304 306 307 308 306 305 306 307 306 306 307 306 306 307 306 307 310 311
326 325 325 324 320 320 324 325 326 327 326 325 325 325 326 325 324 324 322 323 322 320 318 318 317 319 321 320 318 318 317 316 316 317 318 318 317 316 315 314 314 313 313 313 313 314 313 310 307 305 306 309 310 310 309 310 308 308 309 311 311 311 309 306 306 305 304 303 304 306 307 305 303 305 307 307 306 307 307 307 307 306 307 308 308
327 325 325 324 319 318 322 324 325 326 325 326 325 325 325 325 325 325 324 324 324 321 319 319 318 319 322 321 319 318 317 317 317 317 318 317 317 317 316 315 315 314 314 314 314 314 313 312 309 307 306 308 310 311 310 310 310 310 309 310 311 309 308 308 308 307 306 305 305 305 306 306 304 304 306 307 306 306 306 306 306 307 308 308 308
326 324 325 324 319 317 320 322 324 326 325 325 325 325 325 325 325 326 325 325 323 321 318 318 318 321 323 322 320 319 317 317 317 316 317 317 317 318 316 316 315 315 315 315 314 314 313 312 312 311 309 308 309 311 311 310 311 311 310 310 310 309 309 310 310 308 307 306 307 306 307 307 306 305 304 305 305 305 306 306 306 307 307 308 308
326 325 324 322 318 316 318 321 323 324 325 324 324 324 325 325 325 325 325 324 322 320 319 319 320 323 324 321 320 319 317 317 317 317 317 317 317 318 317 316 316 315 315 316 315 314 314 314 313 314 313 311 310 310 311 310 310 311 311 310 310 310 309 310 311 310 308 308 307 307 307 307 307 306 305 303 304 305 306 306 306 306 306 306 306
326 325 323 319 316 316 316 318 320 322 324 324 324 324 324 324 324 324 324 323 322 320 319 320 322 324 324 321 320 319 319 318 317 317 318 317 318 318 317 317 316 316 315 316 316 315 314 315 315 315 315 314 313 311 312 312 310 310 311 311 310 310 310 310 311 310 309 309 308 307 306 307 307 307 306 305 305 305 306 306 306 305 305 305 305
325 324 320 315 314 315 315 315 317 318 320 322 323 324 324 323 323 323 323 323 322 322 322 322 324 324 322 322 321 319 319 319 318 318 318 318 317 317 318 317 316 316 316 316 316 315 315 316 315 316 315 315 315 314 313 314 313 311 311 311 311 311 310 310 310 310 310 309 309 308 307 307 307 307 307 307 306 305 306 306 306 306 305 305 304
324 323 321 317 316 315 314 314 315 315 315 318 321 323 323 323 323 322 323 323 322 322 322 321 320 322 322 321 321 320 320 320 319 320 320 319 319 318 318 318 317 316 316 316 316 316 316 316 315 316 316 316 317 316 315 315 315 315 313 312 312 311 311 311 310 310 310 309 310 309 308 308 307 307 307 307 306 306 306 306 306 306 305 304 304
324 324 322 320 317 314 313 314 313 313 314 315 317 320 321 321 321 321 322 322 322 322 321 319 319 320 321 321 321 320 320 319 319 319 319 319 320 320 320 319 317 317 317 316 316 317 316 316 316 316 317 317 317 317 317 316 316 315 315 314 312 312 312 312 311 311 310 309 310 309 308 308 308 307 307 308 307 306 306 306 306 305 305 304 302
323 324 322 320 319 315 312 312 313 312 312 313 315 316 319 319 320 320 321 322 322 322 320 319 320 321 320 320 321 321 320 320 319 319 319 319 320 321 320 318 318 317 317 317 317 317 317 317 317 317 317 318 318 318 318 318 317 316 315 314 313 313 312 312 312 312 311 309 309 309 309 308 308 308 308 307 307 306 306 306 305 305 304 303 300
320 321 321 320 320 317 312 310 311 311 311 312 313 314 317 319 319 320 321 321 322 321 321 320 321 322 320 318 318 319 320 319 319 319 319 319 319 319 319 319 318 318 318 318 318 318 318 318 317 318 318 318 319 318 317 316 317 317 317 316 316 314 313 313 312 313 312 310 309 309 309 308 308 308 307 307 306 306 305 305 305 304 303 301 297
318 318 318 317 319 318 312 309 310 310 310 311 311 312 315 317 318 320 321 321 321 321 320 319 321 322 319 316 316 317 318 318 318 319 319 319 319 318 319 319 318 318 317 318 318 317 317 317 318 318 318 318 317 315 314 313 314 316 316 316 316 316 315 314 313 313 312 310 310 309 309 309 308 307 307 306 306 305 305 305 304 303 301 299 297
319 318 318 317 316 312 309 308 309 309 309 310 309 310 311 312 315 318 319 320 321 321 320 319 320 319 317 317 319 319 318 318 318 318 317 318 319 318 318 318 317 317 317 316 317 317 317 317 317 317 317 317 316 314 313 313 314 315 315 315 315 316 317 316 314 313 313 311 310 310 309 308 307 307 306 306 305 305 304 304 303 302 301 299 298
323 320 319 318 316 310 306 307 308 307 308 309 309 309 309 309 311 313 314 315 317 317 317 317 316 314 313 316 317 318 318 318 317 317 317 318 317 316 315 314 315 315 315 315 317 318 318 317 316 317 316 316 316 316 316 316 316 316 316 316 316 317 317 317 315 314 313 311 310 309 309 308 307 308 307 305 305 304 303 303 302 302 301 300 299
319 317 316 318 316 312 307 306 308 307 308 308 308 309 308 308 309 310 311 311 312 312 312 313 313 312 312 313 313 315 316 316 316 316 315 316 316 314 313 313 314 315 315 315 316 316 316 316 316 315 315 315 316 316 317 317 317 317 317 318 318 318 318 317 316 313 312 311 310 309 308 308 307 307 306 305 304 303 303 302 302 302 301 300 300
311 311 311 311 311 309 306 306 307 308 308 308 308 308 308 308 308 308 309 309 309 310 310 311 313 314 312 312 313 315 315 314 314 314 312 313 313 313 313 314 314 315 315 315 315 314 315 315 315 315 316 316 317 318 319 319 319 319 319 318 319 319 318 317 315 314 312 312 310 309 307 306 306 307 306 304 303 303 303 302 302 302 301 300 300
308 308 308 306 306 307 306 306 306 306 307 308 307 308 307 307 307 307 307 308 308 308 308 308 310 311 310 310 312 313 312 311 310 309 309 310 310 310 311 312 313 314 314 314 314 314 315 315 316 316 317 316 316 317 317 316 316 317 318 318 319 319 317 316 314 313 313 312 310 308 307 306 306 306 304 303 303 303 303 303 303 302 301 300 300
311 311 308 305 305 307 307 307 306 306 307 307 307 307 306 307 307 307 307 307 307 308 307 307 308 308 307 309 310 310 309 308 308 308 307 308 308 308 309 309 311 312 313 313 313 313 313 314 315 316 315 315 314 314 313 312 311 313 316 317 317 317 315 313 312 312 312 311 309 307 306 306 306 305 303 303 303 303 303 303 302 302 301 300 300
312 311 309 306 306 307 307 307 306 306 306 306 306 306 306 307 307 307 307 306 307 307 307 306 307 306 307 308 308 308 308 308 307 306 306 307 308 308 308 309 309 311 312 313 313 312 312 313 314 315 315 314 314 314 312 311 311 313 314 315 315 315 313 312 311 311 310 309 307 306 306 305 305 303 303 303 302 302 302 302 301 301 300 300 300
308 307 305 305 306 307 307 305 304 305 306 306 306 305 306 306 306 306 306 306 306 307 307 306 306 306 307 308 308 308 308 307 306 305 305 307 307 307 307 308 308 309 310 310 311 312 312 311 313 314 315 315 315 314 313 312 312 312 312 312 312 312 311 309 308 307 307 306 304 304 304 303 303 303 302 302 302 301 301 301 301 300 300 299 298
303 302 301 302 304 306 307 306 305 306 306 306 306 305 305 305 305 305 305 305 305 306 306 306 306 306 306 308 308 308 307 307 306 306 306 307 307 306 306 306 307 307 308 308 309 310 312 311 312 314 315 315 315 314 313 312 312 311 311 310 310 309 307 306 305 305 304 304 303 303 303 303 303 302 302 302 301 301 300 300 299 298 298 297 297
300 300 300 300 301 303 305 306 305 305 305 305 305 305 305 305 306 305 305 305 305 305 305 306 305 305 306 307 308 308 307 307 307 306 306 306 307 306 306 306 306 307 307 307 307 308 311 312 312 313 314 314 314 313 312 312 311 310 309 309 308 307 306 304 304 304 304 303 303 303 303 302 302 302 301 301 300 300 299 298 298 297 297 296 296
298 298 299 299 299 300 301 302 303 303 303 303 304 304 305 305 305 305 305 305 305 305 305 305 305 305 305 306 306 307 307 308 307 307 307 307 306 307 306 306 306 306 305 305 306 308 311 312 313 313 313 313 313 312 311 311 310 309 308 307 307 306 305 303 303 303 303 303 303 302 302 302 301 300 300 299 298 298 298 297 297 296 296 295 294
297 298 298 298 298 299 299 300 300 301 302 303 303 304 304 304 305 305 305 305 305 305 305 304 305 305 305 305 305 305 306 306 306 307 307 306 307 307 307 307 306 305 304 305 306 308 311 312 312 312 312 312 311 311 310 309 309 308 307 306 305 305 304 303 302 301 300 301 300 300 300 299 299 298 297 297 297 297 297 296 296 295 294 294 293
297 297 298 298 298 298 298 298 299 299 300 301 302 302 302 303 303 304 305 305 305 305 305 305 305 305 305 305 304 304 304 304 305 305 305 306 307 308 308 308 307 306 306 306 307 308 310 311 311 311 311 311 309 308 308 307 306 306 305 305 304 303 302 301 301 299 299 298 298 297 297 297 297 297 297 297 297 297 296 295 294 294 293 293 293
297 297 298 298 298 298 298 298 298 299 299 299 299 300 301 301 302 303 303 304 304 304 304 304 304 304 304 304 304 304 304 304 304 304 304 304 304 306 307 307 307 306 307 307 308 308 309 310 310 310 310 310 307 305 305 305 304 303 303 302 302 301 300 300 299 299 297 297 297 297 297 297 297 297 296 296 295 295 294 294 293 293 293 293 292
297 298 298 298 298 298 298 298 298 298 298 299 299 299 300 301 301 302 302 302 303 304 304 304 304 304 304 304 304 304 304 304 304 303 303 303 303 303 304 305 306 307 307 307 308 308 308 309 309 309 309 308 306 304 302 301 300 300 299 299 298 298 297 296 297 296 296 296 296 296 296 296 296 296 295 294 293 293 293 293 293 293 293 293 292
297 298 298 298 298 298 298 298 298 298 298 298 299 299 299 300 301 301 301 302 302 303 303 303 303 303 303 304 304 304 304 304 304 304 304 303 303 303 303 304 306 307 308 307 307 308 308 308 308 308 308 307 304 302 299 297 297 297 296 296 295 295 294 294 294 295 295 295 296 295 295 295 295 294 294 294 293 293 293 293 293 293 292 292 291
297 298 298 298 298 297 298 297 298 298 298 298 299 299 299 300 300 300 301 302 302 302 302 302 302 302 302 303 303 303 303 304 304 304 304 303 303 304 304 303 305 307 308 308 308 307 307 307 307 307 306 305 302 300 297 296 296 295 294 294 293 294 294 294 294 295 295 295 295 295 294 294 294 294 294 294 294 293 293 293 293 292 292 291 291
298 298 298 298 298 297 297 297 297 298 298 299 299 299 299 299 299 299 300 301 301 302 302 302 302 302 302 302 303 303 303 303 303 303 303 303 303 303 304 303 304 306 308 307 306 305 304 305 305 305 304 303 301 298 296 295 295 294 293 293 294 295 295 295 295 296 296 296 294 294 294 293 293 293 293 293 293 292 292 292 292 291 291 291 291
298 298 298 298 298 297 298 298 298 298 299 299 299 299 298 299 299 299 299 299 300 301 301 301 302 302 302 302 302 302 302 303 303 303 303 304 304 304 304 303 304 305 308 307 305 304 304 305 305 305 302 300 298 296 295 294 293 293 294 295 296 296 296 296 296 295 294 293 293 293 293 293 293 293 292 292 292 292 291 291 291 291 291 291 291
296 297 297 297 297 297 297 297 297 298 298 298 299 299 299 298 299 299 299 299 300 300 300 301 301 301 302 302 301 302 302 302 303 303 303 303 303 303 303 304 304 306 308 308 308 307 306 306 306 305 302 299 296 294 294 293 292 294 296 296 296 296 295 295 293 293 292 292 293 293 293 292 292 292 291 291 291 291 291 291 291 291 291 291 291
294 294 294 295 295 295 296 296 296 296 297 298 298 299 299 299 299 299 299 300 300 300 300 300 301 301 301 301 301 302 301 302 302 302 302 302 303 304 305 306 307 308 309 309 309 307 307 307 306 303 302 301 298 295 293 293 293 295 296 296 295 295 293 292 292 292 292 292 292 292 292 292 291 291 290 290 291 291 291 291 291 290 290 290 290
292 292 292 292 293 293 294 294 295 296 297 298 298 299 299 299 299 299 299 300 300 300 301 300 300 301 301 301 301 301 301 301 302 302 302 302 303 305 306 308 309 309 309 309 308 308 307 306 305 303 300 298 296 294 294 295 296 296 295 294 293 292 291 291 292 293 292 292 292 291 291 291 291 290 290 290 291 291 290 291 290 290 290 290 289
Wind_Speed
13 21 26 27 28 30 33 34 32 32 33 31 29 26 23 22 21 20 19 20 22 21 20 19 18 18 19 21 20 19 18 18 17 15 15 15 15 15 12 13 16 16 14 14 14 14 14 14 12 12 14 16 16 15 13 12 12 11 11 11 11 10 8 6 5 5 5 5 4 5 5 5 4 3 3 3 5 7 9 8 7 5 4 4 4
9 13 19 24 25 26 30 31 31 31 31 31 29 27 25 23 22 21 21 22 21 21 20 20 19 19 22 24 23 20 19 19 18 16 16 16 16 16 15 13 13 13 12 11 13 14 14 14 11 9 11 13 14 13 11 10 10 10 10 10 9 7 7 6 6 6 6 4 2 1 2 3 4 4 4 4 5 6 7 7 6 6 5 3 4
8 9 14 20 22 24 27 28 30 32 32 31 30 28 27 25 24 23 22 23 21 21 21 20 19 19 22 25 24 21 18 17 16 16 16 16 16 15 14 13 12 12 10 9 10 10 11 11 10 8 8 10 12 12 10 10 10 10 10 10 8 7 7 6 7 7 5 3 1 2 1 1 2 3 2 3 4 4 5 5 5 5 5 4 2
10 9 10 15 19 23 26 27 28 31 32 32 32 31 30 28 26 24 23 23 22 22 21 19 19 19 22 24 22 20 18 16 15 14 14 14 13 12 11 12 13 13 12 10 10 9 9 9 9 9 8 8 10 11 11 11 10 11 10 10 10 9 7 5 6 7 6 4 2 1 1 2 1 2 3 3 4 4 3 4 5 5 5 5 5
13 12 10 12 16 20 25 27 26 28 30 33 35 34 32 30 27 24 24 25 24 23 21 18 19 22 24 23 21 20 19 16 16 14 13 13 13 12 12 13 15 14 13 11 10 10 10 9 9 9 8 8 9 10 11 11 11 11 11 11 11 10 9 7 6 8 8 6 2 1 1 1 2 2 4 3 4 5 4 4 4 4 5 5 7
14 13 11 12 15 18 24 27 27 27 30 33 36 36 33 31 29 25 24 26 25 23 21 19 22 25 25 24 22 22 20 17 17 16 15 14 14 13 13 12 12 11 11 12 12 13 12 10 9 8 8 7 7 7 9 10 10 10 10 10 9 8 8 8 7 8 9 7 4 2 1 1 1 1 2 2 5 5 3 3 3 4 4 5 6
10 10 11 12 14 16 21 27 29 28 29 32 35 36 34 33 30 26 26 27 25 23 22 23 25 26 24 23 22 22 20 18 18 18 17 16 15 14 13 12 11 10 10 11 13 14 14 13 11 10 9 8 7 7 7 7 8 9 8 7 8 7 8 9 9 9 8 6 5 3 1 2 2 1 1 0 3 3 4 5 5 5 5 5 7
11 11 11 10 13 16 19 25 30 30 29 31 34 36 36 34 31 28 28 27 25 25 26 26 26 26 24 22 20 21 21 21 20 19 18 17 17 16 15 14 13 12 11 11 11 13 14 15 14 13 11 10 10 9 8 8 8 8 7 6 7 8 8 8 9 10 7 6 6 3 1 1 1 1 1 0 1 1 5 5 7 8 6 6 8
12 11 10 10 14 19 21 24 28 30 32 33 36 38 37 36 32 30 30 28 27 30 30 27 26 26 24 22 22 22 22 23 21 19 18 19 19 18 17 15 13 13 12 13 13 14 15 15 14 15 15 15 15 14 13 11 10 9 8 7 8 8 6 5 7 8 7 7 6 4 3 3 3 3 2 1 1 0 2 3 6 9 7 8 10
8 8 9 10 14 19 20 23 27 31 34 34 35 36 37 36 33 33 31 30 32 33 31 28 27 26 25 25 25 25 25 24 22 20 20 20 19 18 17 15 13 12 12 13 15 15 14 13 12 13 14 14 14 14 14 13 12 12 10 9 11 12 10 9 9 8 7 7 7 6 6 6 5 5 6 5 3 1 1 3 5 7 6 8 11
6 6 7 7 9 12 13 16 22 27 29 30 31 34 36 36 36 35 34 34 36 35 32 30 27 26 26 26 26 27 27 26 24 23 21 20 19 18 16 15 14 14 13 13 14 14 13 11 11 11 11 11 11 10 11 11 10 10 11 11 12 13 13 12 11 10 10 9 8 7 8 8 6 5 6 6 4 2 1 2 5 7 5 7 10
6 6 6 7 7 8 10 12 16 21 24 27 30 32 34 36 37 36 35 36 37 35 32 30 28 27 26 26 28 29 28 27 26 25 23 22 20 18 17 17 16 15 14 14 14 13 11 11 12 13 13 12 11 10 10 9 8 8 9 11 12 12 11 10 10 10 9 10 9 8 7 7 6 6 4 4 4 3 2 1 4 7 5 6 10
7 7 6 7 7 8 12 14 16 20 24 28 30 31 33 36 37 38 37 38 39 37 34 30 29 29 28 29 30 30 29 27 26 26 24 23 22 21 20 19 18 16 15 15 15 13 12 12 13 14 13 12 10 10 9 9 8 8 9 10 10 9 8 7 8 8 8 8 8 7 6 5 6 6 4 4 4 4 4 4 5 5 3 5 9
7 6 6 5 5 8 13 18 20 23 26 30 33 31 30 30 32 32 32 32 33 32 31 31 31 30 29 30 31 31 30 28 26 26 26 24 23 23 22 20 19 17 16 16 15 14 13 13 14 13 12 11 10 10 9 9 10 11 11 11 10 9 8 7 8 9 9 8 7 6 6 5 5 5 4 4 5 5 7 7 6 5 4 5 7
6 6 5 4 3 6 12 19 23 26 30 33 32 27 23 22 23 23 22 23 23 18 15 19 25 28 29 30 32 31 29 28 27 27 26 26 25 24 23 21 20 19 17 17 16 15 15 14 14 14 13 12 11 10 10 9 10 11 11 11 11 10 9 9 9 9 9 8 7 6 5 4 3 3 2 3 4 5 7 8 8 6 4 5 6
6 6 5 4 4 4 6 15 21 24 26 27 24 20 20 22 24 25 26 28 29 24 18 14 17 23 29 31 33 32 29 28 28 29 28 27 26 25 24 22 21 20 19 18 17 16 15 15 15 15 14 12 11 11 10 9 8 10 10 10 11 10 9 9 9 8 7 8 8 7 7 6 5 5 5 4 3 4 5 7 9 8 4 3 4
6 6 5 3 5 7 5 6 14 18 20 21 20 21 23 24 24 22 22 24 27 29 28 23 19 20 27 33 34 33 31 29 29 31 31 28 27 26 25 24 23 22 20 19 18 16 14 14 15 16 15 13 12 11 10 8 8 9 9 8 8 8 8 8 8 7 7 6 7 6 7 8 8 8 9 8 6 5 5 5 7 8 6 3 2
7 7 6 5 6 8 9 8 7 12 18 21 22 24 23 23 22 22 23 22 22 25 27 24 22 23 28 35 36 34 33 30 28 31 31 30 29 28 27 26 25 23 22 20 19 17 14 13 14 16 16 15 13 12 10 8 7 8 8 6 6 6 5 6 6 6 6 5 5 5 5 6 7 7 8 8 8 7 7 8 7 7 6 5 2
7 7 7 6 8 11 12 11 11 13 17 20 21 22 23 25 25 25 25 23 22 28 31 30 30 29 29 35 36 35 35 32 29 30 32 31 30 30 29 28 27 25 23 22 21 19 16 14 14 15 16 16 14 12 10 8 7 7 7 6 5 5 3 3 4 3 4 4 3 3 3 5 5 4 5 5 6 6 7 9 8 7 7 7 5
7 7 8 7 9 13 13 12 13 16 19 21 22 24 25 27 27 26 27 29 32 36 37 37 35 31 30 35 37 36 36 34 31 30 32 32 32 31 30 29 28 27 25 24 22 20 18 17 15 15 15 16 15 12 10 9 8 7 6 6 5 5 4 3 3 2 1 2 3 3 3 4 4 3 2 2 3 5 6 8 9 9 7 8 10
7 8 8 7 10 13 14 13 13 15 17 20 22 24 25 26 27 26 29 34 36 36 37 38 35 31 31 34 37 38 38 36 34 32 32 33 33 33 32 31 30 29 27 25 24 21 19 18 17 16 15 15 15 13 12 10 10 9 7 7 7 6 6 6 5 4 4 3 3 2 2 1 2 3 2 2 3 5 5 6 7 7 6 7 10
7 8 7 6 9 13 15 15 14 13 13 15 17 19 24 26 27 28 31 33 34 36 38 36 31 31 33 34 35 37 38 38 36 35 33 34 35 35 34 32 32 31 28 26 24 23 20 18 17 16 15 15 14 14 13 12 11 11 10 9 9 9 8 8 9 8 6 5 4 3 3 2 2 2 2 3 3 3 4 5 6 5 5 5 7
7 7 6 5 9 14 17 17 15 13 11 11 12 15 20 22 23 25 28 31 34 36 36 33 30 31 32 32 32 34 37 39 39 37 37 36 36 36 36 35 33 32 30 27 25 23 21 19 17 16 15 14 14 14 13 12 12 12 12 12 12 12 11 11 12 11 10 8 7 6 5 5 5 5 3 4 3 3 4 5 5 4 4 5 6
7 7 5 5 8 12 15 16 16 15 12 9 10 13 14 15 17 19 21 23 23 24 25 26 28 31 32 29 29 31 32 34 33 33 35 37 39 38 37 36 35 33 32 29 26 24 22 20 18 17 16 15 14 14 13 12 12 12 13 13 14 14 14 14 14 14 13 12 11 9 8 7 7 7 5 5 4 4 5 6 5 6 6 7 9
7 6 6 6 6 7 11 14 16 16 15 13 11 11 12 12 12 13 13 13 12 12 13 10 9 15 21 24 24 24 24 23 19 15 14 17 27 36 37 37 37 36 34 31 28 25 23 21 20 18 17 17 16 16 15 14 14 13 14 15 15 16 16 16 17 16 15 15 15 12 10 10 10 8 7 7 6 5 6 7 7 8 9 10 11
7 7 6 5 4 5 8 13 16 17 17 17 16 14 13 12 12 13 12 12 12 11 11 9 4 5 5 10 15 15 16 18 18 16 10 4 8 21 27 30 31 32 31 30 28 27 24 22 21 19 19 19 18 18 18 18 18 17 17 17 17 18 19 19 19 19 17 17 17 15 13 12 12 10 8 8 8 8 8 8 8 9 10 12 13
6 6 6 6 5 4 6 11 14 16 17 17 18 18 18 16 15 15 15 14 13 12 12 16 13 9 9 9 12 13 13 14 16 19 17 12 10 12 15 19 20 21 22 21 20 21 22 22 21 20 19 19 18 18 18 18 19 20 20 20 20 21 22 22 22 22 20 18 18 17 14 15 15 12 11 10 10 10 9 9 10 10 11 13 15
6 6 6 6 7 5 6 10 13 16 17 16 16 17 18 19 17 16 16 15 15 14 13 15 16 15 13 13 13 14 16 17 17 17 15 13 14 14 14 15 14 12 12 13 13 14 16 17 19 20 20 19 18 17 17 17 17 18 19 21 22 23 26 26 25 25 23 21 20 19 17 17 17 14 13 12 12 11 10 9 9 10 11 14 16
5 5 3 3 4 4 6 10 12 15 17 17 16 16 16 16 15 14 13 14 15 14 13 13 13 16 17 15 13 13 14 13 15 14 10 9 12 15 17 17 15 11 8 9 11 14 15 16 19 20 20 19 18 18 18 17 16 17 19 21 22 23 26 29 29 28 26 23 22 21 19 19 18 16 14 13 12 12 11 9 9 10 11 12 13
6 6 6 5 3 2 3 8 11 13 16 17 17 16 14 13 12 12 12 13 16 17 19 19 17 16 17 14 12 11 7 6 9 13 16 17 18 19 19 19 18 15 13 15 19 21 21 21 21 21 21 21 20 19 17 17 18 20 22 23 24 23 25 29 32 30 28 26 24 22 21 20 19 17 15 14 13 12 11 10 10 10 10 10 9
5 6 7 7 6 6 5 4 7 10 14 17 17 17 16 14 12 13 13 14 16 18 20 20 17 16 16 16 17 17 15 15 15 16 18 19 19 17 15 14 14 13 15 19 21 21 22 21 20 18 18 18 18 17 17 19 20 21 22 23 24 24 25 28 32 33 31 27 25 23 22 22 20 18 15 14 12 11 10 10 10 11 10 9 8
8 8 8 8 7 7 8 7 4 5 10 15 15 15 15 15 14 14 13 14 15 16 16 16 15 16 17 16 16 18 19 18 16 16 16 15 14 12 10 10 10 10 13 16 17 16 16 16 15 15 15 15 15 16 18 20 20 20 20 21 22 25 27 28 30 32 29 26 25 25 23 22 20 17 15 13 12 11 11 12 12 12 11 10 8
10 10 10 10 10 11 12 11 8 4 8 12 13 13 12 11 12 12 11 12 13 13 14 15 16 18 18 18 19 20 20 18 15 14 13 12 10 8 7 7 7 8 10 12 14 14 12 12 12 13 13 12 13 14 15 16 17 16 16 17 19 22 25 27 29 30 28 26 26 26 23 21 18 16 14 13 12 12 13 13 14 13 11 10 9
10 10 10 11 13 16 17 18 16 10 6 8 9 9 8 6 6 7 7 8 9 10 10 12 16 17 17 19 21 21 20 17 15 14 13 11 9 8 7 6 5 5 5 5 6 7 7 7 8 8 7 7 8 10 10 12 13 14 14 15 15 17 20 24 26 28 29 27 26 25 23 20 18 15 14 12 12 13 13 14 15 13 12 11 11
9 9 10 14 18 19 20 22 22 18 12 8 5 5 4 2 3 4 4 4 6 7 6 9 13 14 14 17 21 20 19 17 15 12 10 9 7 5 5 4 3 2 2 2 2 2 2 3 5 7 7 7 7 7 8 11 12 11 11 10 11 12 16 18 20 21 23 23 23 22 19 16 13 13 12 12 12 12 13 14 15 14 13 13 12
7 8 9 12 15 17 19 22 23 21 20 18 14 9 7 5 1 5 5 5 8 9 6 8 10 9 11 16 19 17 15 13 10 8 7 6 5 4 3 3 3 3 2 3 3 4 5 4 5 7 8 7 6 7 9 11 12 10 7 6 7 10 12 13 13 13 15 17 16 15 12 11 10 11 11 11 10 10 11 13 15 15 15 13 11
10 13 13 12 11 12 15 20 22 22 21 21 20 17 14 11 7 3 1 1 5 9 10 10 10 9 11 14 15 14 12 9 7 6 7 6 4 3 3 3 3 3 3 4 5 6 7 7 7 8 9 8 8 8 9 10 10 8 5 3 5 8 9 9 9 10 11 12 12 9 8 8 10 11 11 10 9 10 12 14 15 15 14 12 11
15 18 20 19 17 14 13 13 16 18 19 18 19 19 18 14 10 7 7 6 4 2 3 7 7 8 11 14 15 12 11 9 7 8 8 7 6 5 4 4 4 4 4 4 6 7 8 9 9 9 9 9 8 7 6 6 6 4 3 3 6 9 10 11 11 11 10 10 10 10 9 9 9 9 9 9 10 10 11 12 11 11 11 10 10
17 19 20 21 20 17 14 11 10 13 16 18 18 18 18 17 13 8 6 5 6 6 4 3 3 1 5 12 14 12 11 11 10 11 10 9 7 7 6 5 5 4 5 6 7 8 8 10 10 10 9 9 8 7 6 4 4 3 4 5 7 9 11 10 10 10 10 10 11 11 10 10 9 9 9 9 9 9 9 8 8 9 9 10 11
18 20 21 22 22 20 16 12 9 8 11 13 14 16 18 19 17 14 12 8 4 4 4 4 5 4 2 4 6 8 10 11 12 13 12 10 9 8 8 7 7 6 6 7 8 7 8 11 11 10 10 10 9 8 7 6 6 6 7 7 7 9 9 9 9 9 10 10 11 10 10 9 8 8 7 7 6 6 6 7 8 9 11 11 13
19 20 22 23 23 22 21 18 14 10 8 7 9 12 14 15 15 16 18 15 9 8 9 8 5 3 1 2 1 1 4 6 7 8 9 10 10 11 10 10 9 8 7 7 7 6 8 11 12 11 11 10 9 9 8 8 8 7 8 8 7 8 9 9 9 8 8 8 8 7 7 6 5 5 4 3 3 4 6 8 9 10 10 10 11
18 19 21 22 22 22 23 22 22 20 16 13 13 15 13 12 13 15 16 17 16 15 12 7 4 4 3 3 2 1 2 3 2 1 3 5 8 11 12 11 10 8 6 5 6 6 8 11 12 11 10 10 9 8 8 8 8 7 7 7 7 8 9 9 9 8 7 7 7 6 6 5 4 3 2 4 6 7 9 9 9 8 8 9 9
17 17 18 19 19 19 20 22 24 25 23 21 18 17 17 15 14 14 15 16 16 16 13 11 9 9 8 6 5 3 3 2 2 3 4 5 5 7 9 11 11 10 8 6 6 7 10 12 12 11 10 9 9 8 7 7 7 7 7 6 7 7 8 8 9 8 6 6 7 7 6 4 3 3 5 6 8 8 7 6 6 6 7 7 8
19 19 19 18 17 17 19 21 24 23 23 23 21 19 18 18 18 18 17 16 15 14 14 13 11 10 9 8 8 8 8 9 9 8 7 7 8 8 10 12 14 13 11 9 9 10 12 13 12 11 10 9 9 9 7 7 6 6 7 6 7 7 7 8 8 7 6 6 6 6 4 3 3 5 6 7 7 6 5 5 5 6 6 7 8
18 20 20 18 17 18 19 20 22 21 21 22 21 20 19 17 17 18 18 18 16 15 15 14 13 12 12 11 10 10 11 11 10 10 9 8 9 10 10 11 13 15 15 13 13 13 15 15 14 13 12 11 11 10 10 9 8 7 7 6 6 6 6 7 7 5 4 4 4 2 2 3 5 6 6 6 5 4 5 5 5 5 6 8 10
16 17 18 19 20 21 21 21 21 20 18 19 20 18 17 16 15 14 12 13 15 16 18 19 18 17 17 16 14 13 12 12 11 12 12 11 11 11 10 10 11 14 16 17 17 19 19 18 17 15 14 13 13 13 13 12 10 8 7 7 7 7 7 6 6 4 3 2 1 1 2 3 3 3 3 3 3 3 4 4 5 6 8 10 12
16 17 18 19 20 21 21 21 21 21 18 16 18 19 19 19 19 17 15 12 9 10 12 13 12 13 14 16 16 15 15 15 15 15 15 15 14 13 12 11 11 14 17 18 18 17 17 17 16 15 15 15 15 15 15 14 12 10 10 9 9 8 6 5 4 3 1 2 2 2 1 1 2 2 3 4 5 5 5 6 7 9 11 12 14
19 19 18 18 18 19 20 22 23 23 21 19 19 19 20 21 22 21 19 17 14 11 10 9 7 8 10 12 13 12 14 17 19 18 18 17 16 14 14 13 13 15 18 19 18 16 15 16 17 17 17 17 16 16 15 14 13 13 12 11 9 6 4 3 2 1 1 1 1 1 3 3 3 4 5 6 7 7 7 9 10 11 13 14 16
21 20 19 18 18 19 21 23 25 26 26 24 22 22 22 22 21 20 19 18 17 15 14 12 10 8 9 11 12 12 12 15 19 19 17 16 15 15 15 15 14 15 17 19 18 17 18 18 18 19 19 19 19 17 15 14 14 13 11 10 7 5 3 2 1 0 1 3 4 4 4 5 6 8 9 10 10 10 10 12 13 15 17 18 19
22 22 22 21 21 21 22 24 27 28 28 28 27 25 22 21 20 20 17 16 17 17 17 16 15 12 11 10 12 13 14 15 18 18 16 15 14 14 15 15 15 16 17 18 16 15 16 18 19 19 19 18 18 18 17 16 15 13 10 8 6 4 2 2 2 3 4 5 5 6 7 9 10 11 11 11 12 13 14 16 17 18 19 19 20
22 23 24 24 25 25 25 26 28 28 28 28 28 25 23 21 20 20 19 17 17 17 17 18 17 16 15 13 12 13 16 17 18 18 17 16 14 13 14 15 16 17 17 17 16 14 14 16 18 18 17 15 16 18 19 16 14 11 8 6 5 4 4 5 4 4 5 6 7 8 9 10 10 11 12 12 13 15 16 17 19 19 19 20 21
Wind_Direction
172 166 163 164 167 167 165 163 157 154 158 160 157 158 160 162 163 161 158 158 156 154 154 156 155 148 147 150 145 137 136 134 131 134 137 139 141 145 149 156 169 172 171 177 182 187 188 189 192 190 196 206 213 217 210 201 201 198 197 193 184 178 174 181 201 191 175 177 179 186 207 228 245 264 278 272 267 258 249 244 236 210 168 146 162
162 160 158 158 161 163 162 160 155 153 157 160 158 160 165 169 170 166 163 164 165 164 161 159 155 149 149 149 146 140 135 132 127 125 127 129 132 135 136 142 154 161 162 167 173 181 182 182 187 190 196 206 213 218 216 210 209 204 198 192 183 185 192 199 209 199 191 202 198 178 225 244 248 256 267 281 289 274 259 256 247 226 205 163 128
161 159 156 157 160 162 162 161 159 158 160 161 160 163 167 171 174 171 169 170 171 170 167 162 157 154 151 149 147 142 136 135 131 128 128 125 125 127 127 127 134 144 151 154 162 170 173 173 179 189 196 204 210 213 213 213 210 201 196 193 188 187 193 198 206 210 206 183 125 11 308 295 287 272 267 293 316 307 266 258 253 235 226 220 181
164 163 159 159 161 165 168 167 164 161 161 162 163 166 169 173 176 175 174 173 173 172 169 166 163 158 152 147 146 141 136 138 135 133 135 130 128 131 131 128 127 130 134 140 149 155 160 161 166 179 190 201 210 214 213 213 213 206 199 197 197 196 198 206 212 217 213 182 135 345 333 47 331 316 349 332 333 340 302 275 266 250 240 244 254
168 168 168 167 167 171 171 169 166 163 164 164 166 170 173 176 179 178 176 176 178 178 176 173 165 155 147 141 138 135 135 139 138 135 136 133 129 127 128 128 126 123 120 124 136 146 154 156 158 169 181 193 205 215 215 215 216 213 208 206 208 210 211 214 213 203 198 198 177 130 61 27 246 314 1 347 342 345 321 306 295 276 263 262 267
171 168 170 175 171 169 169 169 169 169 171 169 170 173 176 179 180 178 178 179 182 185 183 177 166 158 152 146 140 137 137 141 141 137 135 133 128 123 125 131 134 129 117 112 118 129 142 153 160 170 180 188 196 210 214 213 211 209 210 213 217 223 215 206 204 194 193 209 220 181 62 26 205 19 38 346 338 351 354 344 335 323 304 295 296
166 166 174 179 174 170 171 173 173 175 176 172 172 176 178 180 180 177 179 183 187 188 183 174 167 165 163 158 153 149 144 141 140 136 134 132 128 125 123 124 130 129 118 112 115 121 127 135 142 155 172 180 181 186 190 190 192 193 194 206 215 220 215 206 198 190 188 202 215 232 304 35 55 42 99 154 336 341 344 350 354 347 328 326 334
168 174 181 180 180 180 176 175 177 178 177 174 175 177 180 182 180 176 179 185 187 182 176 172 168 166 166 163 160 156 148 143 141 137 135 131 128 127 124 119 117 115 112 110 114 119 118 119 121 128 139 147 148 146 150 161 174 175 172 181 197 205 215 215 197 186 184 186 191 211 275 2 356 352 26 51 112 325 319 337 359 358 357 3 2
171 173 179 180 186 188 182 177 177 179 180 180 179 180 181 182 179 177 180 184 181 175 172 171 168 165 165 163 160 155 149 146 145 141 138 135 130 129 129 126 120 113 110 109 110 114 113 112 112 115 121 125 127 126 126 134 140 143 146 148 149 152 167 182 177 178 183 180 175 167 124 95 78 73 45 22 140 157 300 307 346 355 360 6 5
160 165 177 185 191 193 187 179 178 181 184 184 182 181 182 182 180 179 183 183 177 174 172 169 167 166 164 161 158 155 152 149 147 142 140 139 136 135 134 134 133 126 118 113 112 114 114 113 111 111 117 122 121 120 120 120 119 120 123 125 124 121 122 124 130 141 147 146 148 142 123 110 97 80 63 62 96 141 285 288 331 353 344 344 359
150 148 158 170 189 197 191 182 182 184 186 185 185 184 183 183 183 182 184 183 178 175 172 168 167 167 165 162 161 159 157 154 152 149 149 148 144 143 140 139 139 137 133 126 120 120 119 116 112 112 116 121 121 120 123 124 122 118 116 119 121 119 119 117 114 118 123 125 127 128 121 113 104 88 71 66 74 70 8 294 326 349 335 334 360
136 126 135 149 167 185 185 185 189 188 188 189 188 187 185 184 184 183 183 181 178 177 173 170 171 170 167 168 168 165 162 159 156 156 158 157 154 151 148 145 141 139 138 135 132 131 129 121 116 114 113 115 117 119 124 129 132 131 127 127 126 124 124 121 116 117 124 124 118 115 112 106 97 90 82 70 69 67 59 308 329 350 338 336 359
128 120 129 150 165 177 177 179 189 193 193 193 193 191 188 186 185 184 184 183 181 179 176 174 172 171 171 173 173 169 167 165 162 162 164 164 162 158 155 151 147 146 143 141 143 143 139 130 123 116 110 109 112 114 117 121 125 127 129 132 132 132 133 130 126 122 125 124 115 110 106 100 93 83 80 78 66 49 41 22 349 349 330 329 353
114 109 113 132 163 183 184 183 188 196 198 198 198 194 188 186 186 184 184 183 180 177 177 176 173 171 174 176 175 173 171 170 169 168 170 171 169 166 163 158 154 152 150 146 147 148 144 138 132 125 118 117 118 119 117 117 118 116 116 120 123 125 127 127 127 124 120 115 110 111 107 100 94 79 72 66 50 40 43 30 3 353 344 344 352
95 91 92 89 113 173 193 195 194 197 200 202 202 196 186 181 181 180 175 171 169 164 163 172 174 173 177 179 178 177 176 177 177 175 176 178 176 172 168 163 158 155 153 150 148 150 150 147 144 140 134 131 128 127 124 120 119 114 111 111 109 112 117 117 121 123 118 108 99 97 94 92 79 50 28 24 38 49 48 37 27 26 8 354 350
90 81 70 46 51 97 180 201 203 201 201 202 200 190 181 178 180 180 175 171 171 165 158 172 187 181 181 183 182 181 182 181 181 180 181 184 182 177 171 166 160 156 156 155 153 152 151 153 155 153 148 144 141 139 131 124 120 115 113 111 106 106 108 111 115 115 108 99 93 83 67 62 58 47 41 34 47 61 48 36 34 44 48 4 344
103 99 88 60 58 71 93 171 203 205 200 199 196 191 188 182 176 166 158 156 160 162 164 177 195 193 188 188 185 184 186 186 186 186 186 189 189 183 176 169 163 160 160 160 159 158 155 153 156 156 154 150 148 148 141 132 131 127 123 118 111 109 106 106 108 106 102 99 96 84 57 55 65 63 57 57 60 55 44 32 23 33 49 45 19
126 120 113 102 87 82 82 101 159 187 188 189 188 187 181 168 153 137 129 129 137 155 166 177 198 205 196 191 189 188 189 190 191 191 190 192 193 189 183 176 169 164 162 162 163 164 163 158 156 156 158 158 154 153 151 147 145 141 138 133 126 126 116 107 108 103 104 106 100 93 67 57 66 65 61 61 57 45 32 26 18 17 24 30 45
107 93 85 79 72 72 79 95 118 145 166 174 171 169 163 157 155 150 148 153 167 181 184 188 202 211 204 197 194 192 192 191 192 195 196 197 197 194 188 183 177 171 167 165 166 167 167 166 162 158 160 163 163 162 164 165 160 155 155 158 154 156 156 131 125 112 102 110 122 125 93 60 53 56 62 58 45 28 12 9 8 4 7 6 359
102 93 84 75 68 70 80 99 123 140 155 162 161 163 164 166 169 166 169 182 191 193 191 193 204 214 210 201 198 195 193 192 192 194 199 202 202 199 194 189 183 178 174 169 169 170 168 167 166 164 165 168 169 170 173 176 177 177 177 181 183 186 200 199 174 179 175 143 149 151 109 63 42 31 43 47 23 6 352 349 348 344 348 349 340
105 99 93 90 82 80 85 102 127 145 155 161 165 169 172 175 180 182 188 194 195 192 191 195 205 216 211 201 199 198 194 194 194 194 199 204 206 203 199 194 189 185 181 176 174 173 169 167 166 167 168 171 173 174 178 184 188 193 198 200 205 210 218 221 216 221 231 212 183 179 166 67 20 358 358 334 329 347 351 353 353 344 342 341 334
100 93 92 99 96 93 93 100 118 136 155 168 173 176 179 183 190 194 196 195 193 190 192 197 207 213 207 199 197 198 196 195 195 196 198 203 207 207 203 199 194 190 187 183 180 177 173 169 168 168 169 172 176 179 182 188 194 201 208 211 214 222 226 226 226 231 240 237 231 235 236 239 261 293 330 318 305 330 350 352 357 357 354 353 350
85 83 82 91 101 102 98 97 105 117 141 168 179 183 184 187 191 193 192 191 191 192 196 203 208 206 200 195 193 195 197 198 198 198 199 202 206 208 205 202 198 195 192 189 185 181 177 173 171 171 173 174 178 183 187 192 199 206 212 216 220 225 230 232 231 233 239 243 244 249 252 253 255 256 284 309 299 306 333 338 340 345 350 351 353
71 74 70 76 95 102 101 99 101 106 118 143 172 188 191 191 190 189 190 192 193 197 203 209 208 199 193 191 193 194 195 196 198 200 201 204 206 207 206 203 200 197 195 193 190 186 183 180 179 178 180 183 186 190 195 200 206 214 218 222 225 228 231 233 235 235 235 239 242 244 247 253 258 256 266 290 293 296 314 320 320 320 324 327 329
84 83 72 64 72 86 99 105 104 105 108 116 139 171 186 188 181 175 181 187 187 193 196 198 204 194 187 185 185 186 187 189 193 191 192 203 204 203 203 202 200 198 196 194 192 190 188 186 186 187 190 193 196 199 203 208 213 220 226 229 231 233 235 235 237 237 235 236 238 242 245 246 249 252 259 275 280 281 296 300 301 305 310 317 321
118 114 103 92 85 81 96 105 107 109 109 110 119 134 149 158 156 155 162 172 179 184 174 154 107 53 106 152 163 170 178 184 184 172 149 114 183 193 197 198 197 196 195 195 194 194 194 193 193 195 198 202 206 210 213 217 220 223 228 233 235 237 240 239 239 239 237 235 234 237 241 238 237 240 242 254 261 262 274 282 288 299 308 314 320
129 127 123 116 109 101 100 104 107 109 108 110 114 118 128 135 138 143 149 156 170 176 162 151 141 106 85 114 150 161 157 154 158 159 154 143 143 166 187 193 191 187 185 185 188 192 195 196 197 199 202 204 206 210 216 222 225 227 229 233 237 241 242 241 240 241 239 237 234 234 234 229 227 229 229 233 241 248 259 271 282 295 304 311 317
130 134 139 137 133 128 117 112 112 112 110 110 111 114 122 126 128 134 143 153 163 163 151 142 140 140 124 102 106 125 128 128 131 132 134 139 146 158 177 187 184 181 181 180 185 194 197 198 202 205 204 203 206 217 231 233 230 231 234 237 241 244 244 242 241 241 240 237 234 233 231 224 220 220 221 226 233 241 252 263 275 286 297 307 313
107 110 102 113 133 143 139 130 122 118 115 113 112 113 117 123 128 133 142 157 163 159 153 149 152 151 134 106 94 106 112 121 134 139 151 174 179 178 180 182 181 180 188 200 212 215 210 209 214 214 212 217 229 243 249 243 241 247 251 251 250 250 248 246 243 240 239 237 233 232 228 221 217 216 219 227 234 242 252 258 265 279 295 306 310
71 79 66 50 33 18 129 134 128 125 124 119 115 113 113 118 131 139 144 154 162 164 165 166 165 155 145 152 173 170 163 188 189 187 196 199 193 187 181 182 185 188 200 220 231 230 224 224 230 232 233 241 253 259 258 256 261 267 267 263 259 257 252 248 244 239 236 233 230 228 223 216 216 218 222 229 235 243 252 255 261 278 293 301 302
33 57 68 66 54 30 22 74 118 127 126 123 119 116 114 114 123 135 141 147 152 155 157 161 161 154 156 175 190 194 203 213 204 190 188 184 182 185 187 193 203 208 216 225 231 233 232 235 241 246 250 256 263 266 267 270 272 272 270 267 266 266 260 251 244 239 234 228 224 222 218 216 218 222 225 231 236 242 249 254 265 280 289 291 290
28 32 37 44 54 54 41 40 66 116 122 123 125 123 118 118 124 130 134 140 142 138 138 143 143 139 144 159 172 180 188 190 181 174 176 178 181 188 192 196 203 213 221 225 230 235 240 245 253 262 269 273 274 274 274 275 277 275 272 270 268 267 263 255 246 237 229 224 221 219 216 216 218 223 229 234 238 243 248 257 269 279 283 284 285
38 33 29 26 26 34 39 40 44 81 119 124 127 124 116 115 124 130 132 135 136 135 136 141 144 144 147 152 158 163 167 168 167 165 167 169 170 169 172 181 192 208 223 229 234 243 251 256 264 271 277 280 279 280 282 286 291 293 288 281 274 268 263 257 246 233 225 223 222 218 213 210 213 223 235 241 243 245 250 257 267 274 276 278 279
39 34 31 25 17 17 21 25 29 40 98 132 134 126 120 120 126 136 143 142 144 147 145 147 152 155 156 159 161 161 160 158 157 156 156 156 155 151 152 159 171 189 212 224 230 244 253 254 257 261 264 268 274 283 295 305 307 305 300 293 284 274 262 252 242 232 226 223 220 216 212 209 214 227 239 242 244 246 253 260 266 269 271 273 273
39 34 28 19 11 6 7 12 17 23 37 61 84 97 99 112 161 183 189 182 181 178 162 155 158 155 150 154 157 156 154 155 155 154 155 154 154 152 149 153 158 160 179 214 226 265 285 252 235 231 234 246 262 283 305 317 319 316 310 298 278 260 248 240 234 230 225 219 215 215 215 215 223 233 237 241 246 251 257 262 265 266 268 269 268
38 40 39 27 12 1 357 359 3 12 19 20 22 27 29 34 101 215 229 233 223 217 194 164 161 158 152 155 158 155 152 155 158 160 160 158 160 168 170 178 193 195 211 246 265 282 294 282 240 228 234 247 267 293 311 324 333 338 333 308 265 243 235 230 224 219 213 208 207 212 216 218 223 226 230 238 246 252 256 258 261 262 262 259 256
22 24 21 17 10 1 0 359 357 359 359 358 3 6 5 16 38 58 59 182 227 234 227 205 187 179 169 164 165 164 159 157 158 160 164 167 169 182 203 217 227 231 243 263 268 263 266 268 254 239 241 250 262 280 302 320 334 340 335 295 234 217 207 199 191 184 183 184 185 187 197 210 217 221 229 241 249 250 249 249 251 252 249 245 244
16 11 4 2 1 357 359 358 351 348 344 341 346 350 348 351 5 27 44 53 50 17 240 223 216 211 198 187 183 178 171 169 169 168 171 178 189 203 221 231 238 255 278 292 293 278 260 255 252 243 239 244 247 255 280 304 318 318 289 222 196 186 178 174 173 170 171 179 185 192 208 224 231 234 244 257 260 254 244 239 238 240 244 252 262
6 0 354 355 357 354 352 353 346 342 341 338 336 335 337 336 336 346 2 11 26 39 55 70 46 352 202 193 192 191 188 182 179 179 181 191 207 217 224 230 238 261 287 303 312 304 272 249 243 241 240 240 237 234 240 256 257 244 229 214 198 187 178 176 183 188 191 200 209 215 224 234 241 246 254 260 258 249 241 238 246 260 276 289 296
357 355 351 347 347 346 344 341 337 333 338 345 339 323 316 317 319 319 317 320 355 29 22 22 19 22 82 163 183 193 195 192 188 189 193 201 214 223 226 229 238 255 277 297 312 309 272 246 235 233 235 236 231 223 214 215 222 220 216 212 205 197 189 183 188 196 200 204 208 213 220 228 236 241 245 247 246 246 253 265 282 293 303 308 310
353 352 353 349 344 342 339 334 332 325 313 309 304 295 294 298 299 299 299 302 307 309 308 306 304 305 92 93 65 140 181 188 194 205 215 220 223 225 229 233 238 247 263 289 306 296 258 241 231 225 223 221 219 216 209 206 213 216 216 216 211 205 200 194 190 189 190 191 190 193 198 200 205 210 216 236 266 290 296 299 304 309 315 320 321
346 345 347 346 342 341 339 335 336 336 329 315 294 282 283 288 282 275 277 280 281 282 285 283 271 260 256 268 288 273 150 141 137 209 256 248 235 229 232 237 241 248 259 274 283 270 245 232 224 217 214 209 205 206 206 207 212 216 218 219 215 206 202 202 198 187 180 179 174 172 175 175 183 211 259 293 301 303 305 307 311 317 324 327 327
334 334 336 336 332 331 330 328 329 332 336 338 326 300 283 274 269 268 267 266 264 263 262 261 263 269 274 270 259 250 239 248 287 305 310 303 279 253 248 251 253 258 262 256 249 243 230 220 214 208 207 206 201 199 203 211 216 216 213 211 208 200 195 201 205 197 183 175 170 170 180 195 222 263 291 303 304 302 301 306 314 321 323 322 320
322 321 323 324 319 316 317 317 318 320 325 333 338 329 304 279 269 272 271 260 258 260 257 257 260 256 251 248 247 255 266 273 281 284 281 283 285 275 261 253 250 250 247 239 232 226 215 208 206 204 201 201 199 195 198 207 210 208 205 202 200 197 195 202 207 198 179 168 171 180 198 226 264 290 300 305 305 297 288 293 304 309 313 314 314
308 311 315 316 311 309 309 307 307 311 312 313 320 330 327 313 298 288 271 253 250 253 251 254 259 256 250 248 246 250 260 264 263 263 262 267 278 281 273 258 245 237 233 229 226 219 210 203 202 203 201 200 198 193 192 195 196 196 197 195 192 191 193 195 196 186 169 159 163 183 247 290 300 303 305 306 303 290 280 286 293 300 313 319 319
304 308 312 313 310 308 305 301 301 303 302 299 300 307 315 320 321 312 288 263 255 253 251 252 256 260 260 255 247 247 252 252 246 247 252 259 267 272 277 274 256 238 231 228 222 212 203 198 198 201 200 196 193 193 195 193 187 186 188 184 178 174 174 177 178 171 160 146 134 310 312 312 312 320 332 337 337 330 318 314 315 319 324 327 326
301 305 308 308 306 304 301 300 300 299 296 293 293 292 293 296 300 305 307 301 288 273 262 254 251 255 256 250 245 244 244 241 239 241 245 251 255 257 260 264 255 236 225 219 211 201 195 193 196 197 195 192 192 194 195 192 186 183 182 177 173 173 175 181 186 186 206 267 291 307 347 75 85 59 37 22 12 1 349 339 332 329 328 328 328
301 302 301 299 297 296 297 296 295 295 294 291 287 286 286 286 286 288 292 296 297 294 285 273 259 251 247 244 244 243 241 240 237 232 233 238 242 244 247 250 248 237 223 211 202 200 205 208 206 199 191 187 189 193 194 191 187 183 178 174 177 188 200 209 230 264 277 266 225 131 110 99 71 35 18 8 0 352 344 337 333 330 329 327 326
305 305 302 298 293 291 292 292 291 292 292 289 285 282 281 279 279 278 278 279 282 281 280 279 273 258 245 244 245 248 247 241 232 223 221 226 229 233 240 243 242 237 228 219 214 216 220 220 214 205 195 189 189 190 189 188 185 181 180 184 192 205 215 223 262 169 152 142 127 106 73 42 23 10 3 358 353 348 342 338 335 333 331 329 327
305 304 303 299 294 292 291 290 290 290 289 286 282 279 275 271 269 270 268 267 268 270 270 269 267 261 254 247 244 244 242 235 228 220 215 215 218 222 226 225 220 218 219 222 226 232 233 227 216 205 203 205 201 189 180 180 182 181 184 190 192 193 188 164 139 138 135 116 90 62 38 24 17 10 4 1 357 351 345 341 337 335 332 330 328
300 300 298 295 293 291 288 285 286 287 287 284 279 275 271 267 265 266 267 266 264 264 264 261 256 254 252 249 251 250 239 227 220 215 210 205 201 201 204 206 207 209 213 219 225 230 233 229 218 205 198 198 193 181 175 177 181 180 177 173 165 158 146 132 128 135 119 83 57 40 29 20 13 8 5 0 356 351 347 343 339 335 332 330 329